Wind_Speed
18 19 21 22 23 22 22 24 24 25 26 26 27 27 27 27 27 27 27 26 23 20 18 18 18 17 16 15 16 17 16 17 20 21 19 16 15 16 15 16 17 16 16 17 18 18 18 18 18 18 18 18 18 18 17 17 16 17 17 17 18 17 18 18 18 18 17 17 17 18 18 18 19 20 20 20 20 20 20 20 19 19 19 19 20
19 20 20 22 24 22 23 24 25 26 26 27 27 27 28 27 28 27 26 24 21 19 18 18 18 17 16 16 17 17 17 19 21 20 17 16 16 16 15 16 17 16 16 17 19 19 18 18 19 19 18 19 19 18 18 17 17 17 18 18 18 18 18 18 17 17 17 16 17 17 18 18 18 19 19 19 20 21 22 21 19 19 20 19 20
20 20 20 22 24 23 23 24 25 26 27 27 28 27 28 28 27 26 24 21 19 19 19 19 17 17 17 17 18 17 18 22 22 18 17 17 17 16 15 16 17 16 17 17 19 19 19 19 19 19 19 19 18 18 18 17 16 16 17 17 17 17 17 16 16 17 17 16 16 16 16 17 19 19 18 18 19 21 22 22 20 20 20 19 21
20 20 20 22 24 25 24 25 26 27 28 28 27 27 27 27 25 23 22 20 19 19 19 19 18 18 18 17 17 18 21 24 21 17 18 18 17 17 15 16 17 17 17 18 19 19 19 19 19 19 18 18 18 18 18 17 16 15 15 15 16 15 15 15 15 16 18 16 14 13 13 15 17 18 17 17 18 18 20 20 20 20 19 20 21
20 20 20 21 22 24 25 25 26 26 27 27 26 26 25 24 22 21 20 20 20 19 19 19 19 19 18 17 19 22 24 23 19 18 19 18 16 16 15 15 17 17 17 18 18 18 19 19 18 17 17 17 18 18 18 17 15 14 13 13 14 14 14 14 14 14 17 16 12 11 12 13 14 16 16 16 17 17 17 18 18 19 18 20 20
20 20 20 21 19 22 25 25 25 25 25 24 24 23 23 22 21 21 20 21 19 19 19 19 20 19 19 18 21 25 25 22 19 19 19 18 17 15 15 16 17 17 17 17 18 18 18 17 17 16 16 16 17 16 16 16 15 14 13 13 13 13 13 13 13 13 14 13 11 10 11 12 13 15 15 15 16 15 16 17 17 17 17 17 19
19 19 20 20 19 21 25 25 25 24 24 23 22 22 21 21 21 21 21 21 19 19 19 19 20 20 20 20 23 25 23 22 21 20 19 19 17 16 16 17 17 18 17 17 17 17 16 16 15 14 15 14 14 14 14 14 14 13 13 12 13 13 13 13 14 14 12 9 9 10 11 12 13 14 14 15 16 14 15 16 16 16 15 15 17
19 19 19 19 18 21 25 24 24 24 23 23 23 22 22 22 22 22 22 20 19 19 19 19 20 20 21 22 24 24 24 23 21 20 18 18 17 17 17 17 18 18 18 17 16 16 15 14 13 13 13 12 12 12 12 13 12 12 12 12 13 13 13 13 14 14 11 9 9 10 11 12 13 14 14 14 14 13 13 14 15 15 15 15 17
18 18 19 18 18 22 24 24 24 23 23 24 24 24 23 23 23 22 21 19 19 19 20 20 20 20 21 23 25 25 24 23 21 19 17 16 18 19 18 17 18 18 18 17 16 14 13 13 12 12 11 11 11 10 10 11 11 12 12 12 13 14 15 15 14 12 11 10 11 11 11 12 13 14 14 13 12 11 11 13 15 15 15 15 16
18 18 18 18 19 23 24 23 23 23 23 24 24 24 24 23 22 21 21 20 20 20 19 19 19 19 21 25 26 25 24 23 22 19 17 17 18 19 19 18 18 18 17 16 14 12 12 13 12 11 11 11 11 10 9 10 11 11 12 13 15 16 17 18 15 12 12 12 12 12 13 13 14 14 14 14 12 12 12 12 14 14 14 15 15
18 18 18 18 21 23 24 23 22 22 22 23 23 24 23 22 21 21 20 20 20 20 19 20 20 20 23 27 26 24 23 23 23 20 18 18 18 19 19 17 17 16 15 13 13 13 13 12 11 11 12 12 11 10 9 10 11 11 12 13 15 17 17 16 13 12 13 13 13 13 14 14 14 14 14 14 13 13 13 13 13 14 14 14 14
18 17 18 20 21 23 23 22 22 22 21 22 23 22 22 21 21 20 20 20 20 20 20 21 21 20 23 25 22 21 22 22 22 21 19 18 17 18 18 17 15 14 12 12 13 14 13 11 11 13 13 12 11 11 10 10 11 11 12 12 14 17 18 16 13 12 13 13 13 13 13 14 14 13 12 13 13 13 13 13 13 13 13 13 13
18 18 19 21 20 22 23 22 22 21 21 22 21 21 21 21 20 20 20 20 21 20 19 20 21 21 22 22 20 22 22 21 22 21 19 18 16 16 17 16 15 13 12 13 15 14 12 12 13 13 13 11 11 10 10 11 12 12 11 12 15 19 19 17 13 12 13 13 13 13 13 14 13 12 12 12 12 12 12 12 12 12 12 12 12
18 18 20 21 19 21 22 22 21 21 22 21 20 20 20 20 20 20 20 20 21 20 20 20 21 21 21 21 20 22 23 22 22 21 20 18 16 15 17 17 15 14 14 15 14 12 12 13 13 13 12 10 10 10 11 12 12 12 12 14 18 20 19 15 14 13 13 14 13 13 13 13 12 12 12 12 11 11 11 11 11 11 11 11 11
19 19 19 21 20 20 20 21 22 21 21 21 20 20 20 20 21 22 20 20 21 22 22 21 21 21 20 21 22 23 24 22 21 20 20 20 17 15 17 17 16 15 16 15 12 11 12 12 13 12 10 9 9 10 11 12 12 12 13 16 17 18 16 12 12 13 13 14 13 13 13 13 12 12 12 11 11 12 11 10 10 11 9 9 10
18 19 20 21 21 19 19 19 21 21 21 21 20 20 20 20 21 22 21 20 21 23 23 22 23 22 21 21 22 24 23 22 21 20 20 20 19 16 16 17 18 18 17 14 11 10 11 12 12 11 10 9 9 10 11 11 12 12 13 14 15 16 16 12 12 12 12 13 13 13 13 12 11 11 11 11 11 11 11 10 10 10 9 8 9
18 18 19 20 21 20 19 18 19 20 20 20 20 20 20 20 21 21 21 20 22 24 23 23 23 22 22 21 22 22 22 21 20 19 19 20 19 16 16 16 17 19 17 14 11 10 10 10 11 10 9 9 9 10 11 11 12 12 12 13 15 17 17 12 11 12 12 12 12 12 12 11 10 11 11 11 10 10 10 10 10 10 9 8 8
17 17 19 20 20 20 19 18 18 18 18 18 18 19 20 20 20 21 21 21 22 23 23 22 22 22 21 20 20 20 20 19 18 18 17 17 18 17 17 15 14 16 17 14 11 11 10 9 10 9 10 9 9 10 11 11 12 12 12 14 15 17 17 13 11 13 12 12 12 12 12 11 11 11 10 10 10 9 9 9 9 9 9 9 8
17 16 18 20 20 19 19 18 19 19 17 17 17 18 20 21 20 20 21 21 22 22 22 22 22 22 20 20 21 19 18 17 17 17 15 14 15 16 16 15 13 14 16 14 12 12 10 9 9 9 10 10 9 9 11 11 12 12 13 15 16 17 15 12 11 11 11 12 12 12 13 12 11 10 10 10 9 9 9 8 8 8 8 9 8
16 16 16 18 19 20 20 19 19 20 18 18 17 17 19 20 19 20 21 21 22 22 22 22 21 20 20 21 20 17 15 14 14 15 14 12 13 14 14 14 14 14 14 14 13 13 11 10 9 9 11 11 10 9 10 11 12 13 14 16 15 14 10 9 10 10 11 11 12 12 14 12 10 10 10 9 9 8 8 8 8 7 8 8 8
16 16 16 18 19 19 20 19 20 20 19 18 17 17 18 19 18 19 20 21 22 21 21 20 18 18 19 20 18 16 14 13 13 13 13 11 12 13 13 14 14 13 14 14 14 14 12 11 9 10 11 12 11 10 10 10 11 12 13 14 13 10 7 8 9 9 10 11 11 12 13 11 10 10 9 9 9 8 7 8 7 7 7 7 7
17 17 16 18 19 19 19 19 20 19 19 18 18 18 18 18 17 17 18 19 19 19 18 17 16 16 18 18 16 15 15 14 15 13 12 11 11 13 13 13 13 13 13 15 16 15 13 12 10 10 12 13 11 10 9 10 10 12 13 13 10 6 6 7 8 9 10 11 11 12 12 10 10 10 8 8 8 7 7 7 7 7 6 5 5
16 17 18 19 19 19 19 18 19 19 19 18 17 18 18 19 18 18 17 18 18 17 17 17 16 16 17 17 15 14 14 15 16 15 13 11 11 12 13 13 13 13 13 15 17 17 14 12 11 11 13 13 11 9 9 9 9 11 11 9 6 6 7 7 7 9 9 10 11 12 11 10 10 9 7 7 7 6 6 6 6 6 6 5 5
15 16 18 19 18 18 18 18 19 19 18 17 17 17 19 19 18 19 19 19 19 18 18 18 17 17 17 15 13 14 14 14 16 16 14 12 11 12 13 12 12 12 12 14 17 17 15 13 11 12 13 11 8 8 8 8 9 8 6 5 6 7 7 6 7 8 9 10 10 11 11 10 10 9 8 8 7 7 6 5 5 6 7 7 7
13 14 16 17 18 17 17 18 18 19 18 17 16 16 18 18 17 18 18 17 17 18 17 16 16 16 15 13 12 13 13 13 15 16 15 14 13 13 13 11 11 11 11 13 14 15 15 13 13 13 12 10 8 8 7 8 8 7 6 7 7 6 6 7 8 8 9 9 9 10 11 9 9 9 8 8 7 7 6 6 6 6 7 7 8
12 12 13 15 16 16 16 16 17 18 17 15 14 15 16 15 15 15 15 14 15 15 14 13 14 15 14 13 12 12 12 12 13 15 14 14 14 13 13 12 11 11 12 11 12 13 13 12 14 13 11 9 9 8 7 7 7 7 7 7 7 6 7 7 7 8 9 8 8 10 10 9 8 8 8 7 7 7 7 6 6 6 6 7 7
11 11 11 13 14 14 14 14 15 15 14 14 13 13 14 13 12 14 13 12 13 12 12 12 12 14 14 14 13 12 12 12 13 14 13 13 14 13 13 13 12 12 12 11 11 12 12 12 13 12 11 10 9 8 7 7 7 7 7 7 7 7 7 7 7 8 8 8 8 8 8 9 9 7 7 7 7 7 7 6 6 6 7 7 6
11 11 10 12 13 13 13 12 12 13 13 14 12 12 12 11 11 13 12 11 11 11 11 12 12 14 14 14 14 13 12 12 12 13 13 13 13 13 12 13 12 12 12 11 11 12 11 11 12 12 11 10 10 9 8 7 6 7 7 7 7 7 7 7 7 7 8 8 7 7 7 8 8 8 7 7 6 6 7 6 6 5 6 6 5
10 11 10 10 11 12 12 11 11 11 12 12 11 10 10 11 11 10 10 10 10 10 10 11 11 12 13 13 13 13 13 12 12 12 12 12 12 12 12 12 12 12 12 11 11 11 11 11 11 12 11 10 10 9 8 7 6 6 7 7 7 7 7 7 7 7 7 8 7 6 6 6 7 8 7 6 6 6 7 6 6 5 6 6 6
9 10 9 9 10 10 10 10 9 9 10 10 10 10 10 10 10 9 10 10 10 11 11 11 11 11 12 13 14 15 15 13 12 11 11 11 11 11 11 12 12 12 12 11 11 11 10 11 11 11 11 11 10 9 8 7 6 6 6 7 7 7 7 7 6 6 6 7 7 5 5 5 7 9 7 6 6 7 6 6 5 5 5 6 6
8 9 8 7 8 10 10 9 8 8 8 9 9 10 11 10 9 9 9 11 12 12 11 11 11 11 10 12 15 16 15 14 13 12 12 12 10 10 10 11 12 12 12 11 11 11 10 10 11 11 11 11 10 9 8 7 7 6 6 7 7 7 7 6 6 6 6 5 6 6 4 4 7 8 7 6 6 6 5 5 5 5 5 6 6
8 8 8 6 7 8 8 8 8 8 8 8 9 10 12 11 10 10 10 12 12 11 11 10 10 10 10 12 14 13 12 15 15 14 14 12 10 10 10 10 11 11 12 12 12 11 10 10 11 11 11 10 10 10 9 8 7 6 6 6 7 7 6 6 6 5 5 5 5 6 4 4 5 7 7 6 5 5 4 5 5 5 5 5 6
8 8 7 6 6 7 7 7 8 8 8 8 9 11 12 11 10 10 11 11 10 9 9 9 10 11 11 12 13 11 11 15 15 14 12 10 9 9 10 10 10 10 11 13 13 12 11 10 11 11 11 10 10 10 9 8 8 7 6 6 6 7 6 6 6 5 5 5 4 4 5 5 5 5 5 5 5 5 5 5 4 4 4 5 5
6 6 7 7 5 5 5 5 6 7 8 9 9 9 11 11 8 8 10 10 9 8 7 8 10 12 12 11 12 11 11 12 14 14 11 8 8 8 8 9 10 10 11 13 13 13 12 11 12 12 11 11 10 10 9 8 8 7 7 7 6 6 6 6 6 6 5 4 4 4 4 4 5 4 4 5 5 5 5 5 4 4 4 5 5
6 6 7 6 5 4 4 4 6 6 8 9 9 8 8 10 9 7 9 9 9 9 8 9 10 11 10 9 11 10 8 10 12 13 11 10 10 9 10 9 9 10 10 12 13 13 13 13 13 13 12 11 10 10 9 8 8 7 7 7 6 6 6 6 6 6 5 5 4 4 4 4 4 3 4 4 4 5 5 4 4 5 6 5 5
7 5 5 5 4 4 4 6 8 7 7 9 10 9 8 9 9 8 10 9 10 11 9 8 9 9 8 7 9 10 10 10 11 11 11 12 12 12 14 12 10 10 9 10 12 13 12 13 14 14 13 12 11 10 9 8 8 7 7 6 6 6 6 5 5 5 5 5 4 4 4 4 3 3 4 4 4 4 4 3 5 6 6 5 4
6 5 5 5 5 5 5 6 8 8 7 7 8 8 9 10 9 8 10 10 11 10 8 8 8 7 6 5 7 10 10 9 11 12 12 13 12 12 14 13 12 12 10 10 12 12 12 12 12 13 13 12 12 11 9 8 8 7 7 6 6 6 5 5 5 5 5 5 4 4 4 4 3 3 3 3 4 4 4 5 6 7 8 7 5
6 6 6 5 5 5 5 5 7 7 7 6 5 6 9 9 9 8 8 8 9 8 8 8 7 6 5 4 6 7 8 9 11 12 13 14 12 12 12 12 13 13 11 10 11 12 13 12 12 13 13 13 12 11 9 8 8 8 8 8 7 6 5 5 4 4 4 5 5 4 4 4 4 3 3 4 4 5 6 8 8 9 10 8 7
6 7 6 5 6 5 4 5 5 6 5 5 5 6 8 8 8 9 9 9 9 9 10 9 7 8 7 6 7 7 8 10 11 12 14 13 13 12 11 11 13 14 12 11 11 12 13 13 13 13 12 13 13 12 10 10 9 9 9 9 8 7 6 5 4 4 5 5 5 4 4 4 4 4 4 4 4 5 6 6 7 7 7 6 6
7 7 7 6 6 6 4 4 4 4 4 4 5 7 9 9 8 9 10 11 11 11 11 10 9 9 10 9 10 11 10 9 9 11 13 13 13 13 11 12 14 15 15 13 12 12 12 13 13 14 13 13 13 12 11 11 11 10 10 9 8 7 6 6 5 5 5 5 5 5 5 5 5 5 5 4 5 5 6 5 5 6 6 5 5
7 8 8 7 7 6 4 4 4 3 3 4 6 7 9 9 8 9 11 12 11 10 10 11 11 10 11 11 11 12 11 9 9 10 12 12 13 13 12 14 15 16 17 15 12 11 11 12 13 13 14 14 14 13 13 13 12 11 10 9 8 7 6 7 6 6 6 6 6 6 5 6 6 6 6 6 5 5 5 5 4 3 3 3 3
8 7 8 8 7 6 4 3 2 2 4 4 5 6 8 8 7 8 12 14 12 10 9 10 11 10 10 11 11 12 11 9 10 11 12 11 12 13 13 15 15 15 15 13 11 11 12 14 14 14 14 14 14 14 16 15 12 11 10 8 7 6 6 7 7 7 7 7 7 7 6 7 7 6 6 6 6 5 5 5 4 3 1 1 2
8 7 7 7 6 5 4 3 1 2 3 3 3 6 8 8 6 7 10 12 12 10 10 10 11 11 11 12 12 11 10 9 10 11 11 10 11 13 14 14 14 15 15 13 12 13 15 16 16 15 14 13 12 13 16 15 12 13 12 8 5 5 5 7 9 8 7 7 7 8 8 8 8 7 6 5 5 5 6 5 4 4 2 0 1
7 7 7 6 5 4 4 3 1 2 4 4 4 4 6 6 6 6 8 10 10 9 10 11 12 12 12 13 13 13 13 10 10 10 10 10 10 12 13 13 14 15 15 15 15 15 16 16 17 17 15 13 13 14 15 14 13 13 10 6 5 5 4 7 10 9 8 8 7 9 9 9 9 8 7 7 6 5 7 6 6 6 3 1 1
7 7 7 6 5 4 4 3 1 2 4 5 4 4 5 5 5 5 7 9 9 9 10 11 13 12 12 12 12 14 13 10 10 10 10 10 10 10 12 12 14 16 16 16 16 16 15 15 17 19 19 16 13 14 14 13 12 11 7 3 4 4 4 7 9 8 10 10 7 8 8 8 9 9 8 8 7 5 5 5 5 6 3 2 2
8 8 7 6 6 5 4 3 2 3 3 3 4 4 5 6 7 8 8 9 10 11 11 11 10 11 11 11 11 12 11 10 10 10 10 11 10 10 12 13 14 17 18 17 16 15 15 17 17 18 19 17 14 13 13 12 11 12 11 6 3 3 4 8 7 5 8 9 8 9 9 8 9 10 10 8 7 5 4 4 3 4 3 2 2
9 8 8 7 6 5 4 2 2 3 3 4 5 5 6 7 9 10 10 11 11 10 10 9 8 8 9 9 10 11 10 10 11 11 11 11 12 12 13 14 14 17 19 18 17 16 16 18 18 18 19 18 16 14 13 13 12 13 13 10 5 4 4 6 4 3 6 6 8 10 9 9 9 10 10 8 7 6 4 4 4 4 3 2 2
8 7 7 6 5 3 2 2 2 3 4 5 6 7 8 9 10 11 11 11 10 8 8 9 8 8 8 8 9 10 11 11 12 12 12 12 13 13 13 14 15 17 19 19 18 17 18 19 18 18 20 18 16 14 13 14 14 13 14 12 8 6 5 4 3 3 4 5 7 8 7 9 9 9 8 6 7 6 5 5 4 4 3 2 2
8 7 6 5 4 2 2 1 2 3 4 5 7 8 9 9 10 11 12 12 11 9 8 9 8 8 9 8 8 9 10 11 12 13 12 13 14 14 14 16 16 16 18 18 17 16 18 19 17 17 18 16 15 14 13 14 14 13 13 12 10 8 8 6 4 5 5 4 6 7 8 9 7 7 7 6 7 6 5 5 3 3 2 1 1
8 7 6 5 4 3 2 1 1 3 4 5 6 8 10 11 11 12 12 12 12 10 9 10 10 9 9 8 7 8 9 10 11 12 12 13 14 15 16 16 17 16 16 16 15 15 17 17 16 17 16 15 14 14 13 13 14 13 12 12 10 8 8 8 7 6 5 4 4 7 10 9 7 7 7 6 7 6 5 3 3 2 1 1 1
8 7 6 6 5 4 2 1 1 2 4 6 7 9 10 11 11 12 12 13 13 12 11 11 11 10 9 8 6 6 8 10 11 11 12 12 13 16 17 16 16 15 15 16 16 15 16 16 15 16 16 16 15 14 13 12 12 13 12 12 11 9 8 7 6 7 6 4 4 7 11 12 10 9 7 6 6 6 5 4 3 3 2 2 2
Wind_Direction
147 141 141 156 154 150 149 148 148 147 148 148 150 151 152 151 151 149 147 145 143 140 136 134 133 132 128 131 132 132 132 132 133 126 124 131 127 118 114 111 108 108 112 115 115 114 113 113 112 109 107 106 104 101 101 101 103 105 104 105 107 106 102 99 97 94 92 92 89 86 80 76 76 74 73 74 75 77 76 72 69 70 68 68 70
147 143 140 154 155 151 148 148 147 146 148 147 148 149 150 149 149 148 147 146 142 138 133 130 128 128 128 131 130 131 133 135 132 126 131 133 123 118 115 111 108 110 112 113 116 114 112 111 109 108 108 106 105 103 102 101 103 106 106 107 109 109 108 104 101 99 96 93 91 89 84 78 73 72 72 72 73 75 76 74 73 72 71 70 71
145 144 141 153 156 151 149 149 147 147 147 147 147 146 148 148 147 147 147 144 139 134 128 128 128 130 132 131 131 132 136 137 131 129 134 128 123 120 116 113 110 112 113 114 115 114 112 111 110 109 108 107 105 104 103 103 104 107 108 108 111 113 111 108 107 106 98 87 82 80 80 79 73 70 69 70 70 71 72 73 73 73 73 73 73
145 143 142 151 155 153 152 149 148 148 147 148 147 145 147 148 147 145 143 140 136 133 129 130 131 134 134 134 135 133 133 132 129 133 131 125 124 119 117 115 113 115 114 115 114 113 113 111 110 109 109 108 107 105 103 102 103 106 108 110 112 115 113 112 112 109 99 89 84 80 81 80 73 70 68 68 69 69 71 70 70 71 72 74 75
144 143 143 147 151 155 154 151 150 149 149 149 148 147 147 146 145 142 140 139 136 134 133 133 134 135 132 133 136 133 130 129 129 132 127 123 121 118 119 117 116 117 115 114 113 113 113 112 111 110 112 112 110 105 101 98 97 99 104 109 112 114 114 114 113 109 100 94 93 90 88 85 78 72 68 69 71 70 71 71 71 72 72 72 74
144 143 142 144 146 154 156 154 153 152 152 151 149 148 146 143 141 140 140 139 137 136 135 135 135 134 131 132 134 132 131 130 131 129 128 128 126 125 124 120 118 118 116 115 114 114 113 112 112 112 115 115 112 107 102 97 94 94 98 106 111 113 114 114 112 107 97 90 91 91 89 88 83 74 69 71 73 72 73 73 72 73 72 73 74
142 142 141 143 143 154 157 156 155 155 154 153 150 146 143 141 140 141 141 140 138 138 137 138 137 133 135 136 134 132 132 132 133 132 134 136 135 132 126 122 120 120 119 118 116 115 113 113 114 113 115 115 111 106 100 96 93 92 94 102 110 111 111 111 110 102 91 86 87 91 90 87 85 78 72 74 77 75 75 77 75 73 74 74 75
141 141 141 142 145 155 158 157 158 157 156 154 152 148 145 143 144 144 144 142 141 142 139 139 138 137 139 137 135 134 133 134 135 136 138 138 136 130 125 124 123 123 122 120 118 116 117 117 114 112 112 107 102 101 94 91 92 93 94 98 106 109 107 105 101 91 84 86 87 87 88 88 87 82 77 78 81 76 74 79 78 75 77 77 76
142 142 141 141 147 156 157 158 158 158 158 157 155 153 151 150 149 148 147 146 146 146 139 136 139 141 142 141 139 138 137 136 135 137 139 137 133 128 126 127 125 124 124 123 121 121 123 118 114 112 108 99 96 96 92 92 93 95 96 96 101 103 101 96 87 79 80 84 84 84 86 89 88 84 80 81 87 88 83 80 78 76 75 75 75
141 142 142 141 148 156 157 157 158 158 159 159 158 157 156 155 153 152 150 150 149 144 139 138 142 143 144 145 143 141 140 139 140 141 141 136 131 129 128 128 127 126 127 127 126 127 126 120 116 112 105 99 98 98 96 96 96 98 97 98 102 100 95 88 81 78 82 83 82 81 82 86 89 87 84 82 86 92 88 84 83 79 73 71 73
142 143 140 141 151 157 156 157 157 158 159 159 160 159 159 157 153 151 150 150 146 142 143 144 144 143 143 145 144 143 144 145 146 146 144 138 134 133 131 131 129 127 127 127 128 128 123 119 115 111 106 100 97 98 97 97 100 102 101 104 106 103 94 85 82 84 85 85 86 86 85 86 89 89 88 83 82 84 80 80 81 79 75 74 75
142 142 139 142 153 156 156 157 157 159 160 160 160 160 159 154 150 149 148 147 144 141 144 145 144 144 144 146 146 145 146 150 151 151 149 143 140 138 138 138 134 131 132 131 129 125 118 114 112 110 106 99 96 98 99 102 106 107 107 109 110 105 95 87 88 90 89 87 85 85 85 85 89 92 91 87 83 83 81 78 77 76 76 75 76
143 141 140 142 150 155 157 158 159 161 160 160 160 159 155 150 147 147 147 147 144 143 146 147 146 147 147 147 150 150 152 155 156 156 156 151 145 142 144 143 141 140 141 137 128 121 114 112 112 112 108 101 99 99 103 107 109 109 109 110 111 106 96 92 92 90 88 86 84 83 85 86 91 94 92 90 85 84 85 79 78 78 76 75 76
143 139 139 141 149 155 158 159 160 162 160 160 158 155 152 149 147 146 148 149 147 148 151 149 146 147 148 150 155 159 160 160 159 160 160 158 152 147 150 149 148 148 143 136 127 120 115 112 113 114 112 107 103 101 103 106 108 110 109 112 112 103 94 94 94 91 89 87 86 86 87 89 92 94 93 92 88 89 89 83 83 81 79 81 80
142 138 139 141 148 154 158 161 162 162 161 160 155 154 152 152 151 150 153 153 152 152 153 150 147 148 150 154 160 164 165 164 163 163 163 163 160 154 156 155 153 151 142 136 129 124 116 113 115 117 118 113 106 101 101 104 107 109 110 116 113 102 97 99 97 94 92 89 88 87 88 93 98 97 96 96 94 94 92 85 87 86 85 89 83
142 142 142 143 148 153 156 159 163 163 162 159 155 155 154 156 155 156 157 155 155 155 155 154 153 154 154 156 160 163 165 167 168 168 166 165 165 162 162 162 156 150 143 139 135 129 119 113 114 119 124 118 107 101 100 103 107 110 113 118 116 110 107 104 99 96 93 92 91 90 89 97 103 99 97 97 96 96 94 90 89 90 90 92 87
143 144 144 146 149 153 155 157 163 162 161 159 158 159 158 161 160 159 159 156 158 158 159 159 158 159 158 159 161 163 163 162 164 166 166 165 168 169 167 167 159 152 146 143 140 135 125 114 114 122 129 123 112 103 99 103 106 109 112 117 119 115 110 103 98 96 94 93 93 91 92 99 99 95 94 96 96 96 96 95 92 92 88 87 87
144 146 146 148 151 154 156 158 160 158 158 159 161 165 165 165 164 161 160 160 161 162 163 163 162 163 163 162 163 162 161 160 160 162 165 166 171 173 171 169 163 158 151 147 146 142 133 118 117 127 135 130 117 106 101 102 104 108 111 116 118 109 102 98 98 98 96 94 94 93 96 101 101 99 98 100 101 98 98 98 97 94 86 82 87
145 148 149 150 153 157 159 159 158 159 159 160 163 169 169 167 166 164 163 163 164 166 166 165 165 167 166 163 160 157 157 159 162 166 171 172 173 174 172 170 170 170 160 152 152 149 139 127 125 134 141 135 122 110 103 101 104 107 110 114 110 95 90 96 100 99 96 94 94 96 101 101 100 103 103 103 101 96 94 95 97 97 91 86 90
151 151 154 154 158 161 160 161 160 162 162 163 164 168 172 170 169 167 166 166 167 169 168 167 168 168 166 160 154 151 153 155 157 164 171 171 172 173 173 176 179 179 170 160 156 154 145 134 136 143 144 139 128 115 104 103 105 106 111 112 97 81 86 99 100 96 95 97 97 103 108 105 102 101 99 100 98 95 91 87 90 92 96 94 91
156 154 159 160 163 165 163 163 163 164 164 164 163 166 173 172 171 169 168 169 170 171 169 169 170 169 167 159 152 152 158 157 154 158 162 165 173 177 179 182 184 182 174 164 158 158 150 141 147 148 146 142 131 118 108 105 105 108 112 102 83 79 99 101 98 97 97 100 102 107 111 111 109 103 101 101 100 99 95 89 88 90 97 101 90
158 158 164 164 166 169 168 167 165 166 167 165 163 167 172 171 171 170 170 172 171 171 169 170 171 170 167 163 159 160 164 163 163 163 162 166 175 181 184 185 186 185 176 165 160 160 155 149 153 154 150 141 129 123 117 110 109 112 105 88 81 98 107 99 100 98 98 102 105 110 114 115 110 106 107 104 100 101 96 86 82 82 89 103 91
162 164 167 169 170 172 171 170 169 170 169 167 166 168 170 171 172 171 172 175 174 172 171 173 174 170 168 169 168 167 167 167 168 167 163 166 175 180 183 185 187 187 178 167 162 160 158 155 157 158 150 139 133 138 135 125 121 114 98 86 102 117 107 105 102 96 99 102 110 120 120 114 110 106 101 97 96 99 96 85 82 80 79 92 96
166 166 169 171 173 175 175 175 174 173 173 170 168 170 173 173 174 175 175 176 177 178 177 176 177 173 170 173 172 169 170 168 169 170 167 167 174 175 176 182 184 190 182 167 163 160 157 159 164 161 152 148 151 153 143 139 137 127 115 114 123 118 111 108 100 99 101 101 115 127 119 113 115 111 99 96 96 97 98 92 88 85 77 80 90
168 167 169 173 176 178 179 180 179 179 178 174 172 174 175 175 177 180 180 179 182 184 182 181 182 178 176 178 175 171 172 170 170 173 173 171 170 169 171 172 173 183 175 161 164 163 159 164 169 166 165 167 166 157 147 146 146 141 136 128 123 120 114 106 101 102 100 100 115 122 116 116 117 113 106 99 94 91 92 91 84 83 85 82 85
171 171 170 173 178 181 182 183 183 183 182 178 176 177 178 179 182 184 184 185 188 190 188 190 190 184 182 183 179 178 178 176 174 173 175 176 173 171 171 168 167 175 169 159 166 170 172 173 172 174 177 174 164 156 151 149 146 139 133 127 125 122 111 105 104 103 102 103 115 120 118 119 113 110 108 100 95 93 87 84 80 79 86 82 78
175 176 172 172 178 184 184 183 183 183 184 184 180 180 183 185 188 188 188 189 193 196 195 197 198 190 186 185 185 186 186 184 181 177 176 178 178 177 174 171 172 176 176 171 171 178 184 182 180 182 179 173 165 158 154 151 148 140 133 129 126 120 112 109 108 106 105 105 114 123 124 124 119 113 109 101 97 95 88 83 80 77 82 81 76
176 179 177 177 183 187 186 185 184 184 186 187 184 184 190 192 192 189 191 195 194 199 200 198 199 195 192 192 192 193 193 190 187 183 181 183 184 182 178 175 176 179 178 177 177 180 187 188 185 183 179 174 167 161 157 153 150 143 134 131 126 119 113 111 114 113 112 112 117 127 129 127 125 118 109 104 102 103 103 98 91 82 78 82 85
178 182 183 183 188 188 186 186 185 185 186 186 187 190 195 195 191 188 196 200 197 203 204 201 202 201 200 199 198 196 195 194 193 189 187 187 188 186 184 180 179 180 175 174 179 182 187 188 184 182 179 174 169 166 162 157 155 150 139 133 128 120 115 115 121 118 114 117 122 135 137 130 133 127 113 109 109 108 107 100 94 81 73 81 89
182 183 187 190 193 190 187 186 183 185 185 186 191 196 198 195 194 193 198 202 204 210 209 208 209 206 206 205 205 203 195 191 191 190 190 189 186 188 188 183 180 179 175 173 178 183 188 185 182 183 180 177 174 168 165 165 164 159 147 136 129 124 121 121 125 121 118 121 124 134 138 125 130 130 120 114 110 106 101 93 96 92 87 93 88
190 185 188 193 196 193 190 188 184 182 187 192 195 201 204 201 200 198 202 207 208 213 211 212 215 212 212 212 212 211 200 191 189 189 192 190 187 190 188 185 183 180 177 174 178 184 188 184 183 184 183 181 176 170 171 172 172 168 156 142 134 132 129 127 128 126 125 127 129 132 129 121 129 131 126 120 106 102 102 99 104 105 102 102 91
193 191 192 194 198 196 193 189 185 184 188 197 199 208 213 208 202 198 209 216 211 216 215 213 225 224 222 222 220 219 206 196 196 198 198 194 194 195 190 190 187 183 181 177 178 183 186 185 183 185 184 182 178 175 176 177 178 174 163 150 141 138 134 133 134 133 133 134 135 138 137 134 137 132 128 126 110 105 113 109 105 106 107 103 97
192 192 193 194 197 195 194 188 185 184 183 197 204 213 217 208 202 200 211 219 215 222 222 215 228 232 232 232 228 225 215 203 200 205 207 198 197 197 194 196 190 184 186 182 179 182 185 187 186 187 188 187 182 179 181 181 179 174 166 155 146 142 139 141 142 141 143 142 141 144 142 144 148 133 132 145 137 133 133 118 108 109 108 107 105
192 193 200 200 198 196 197 193 191 189 191 205 209 212 219 212 206 209 214 219 222 232 233 225 236 241 242 244 239 231 219 206 199 206 211 199 195 200 199 198 192 186 186 185 184 185 187 189 191 192 194 195 188 183 186 183 178 174 165 156 151 148 149 151 150 150 152 154 150 147 146 147 149 140 144 164 170 169 155 135 132 127 113 113 112
191 188 200 204 203 197 205 213 214 209 203 210 209 205 215 215 211 212 215 220 227 233 232 229 242 249 251 258 258 251 229 207 199 206 212 204 197 199 200 196 191 187 187 191 190 189 190 191 194 196 197 200 194 188 187 182 182 177 165 161 159 158 161 161 159 159 160 162 155 151 154 146 144 147 145 155 175 176 164 152 143 131 118 109 107
194 185 183 190 194 188 201 215 216 219 211 210 216 212 209 220 222 208 210 219 226 228 228 233 245 252 254 258 260 259 243 214 202 208 216 215 206 198 200 198 190 188 189 195 193 191 191 190 195 197 195 199 198 192 187 182 183 177 166 167 166 166 168 165 167 167 164 166 158 151 153 146 142 142 136 136 153 161 154 152 148 141 130 115 115
188 179 164 173 183 180 191 205 210 219 215 204 214 223 221 235 240 214 213 225 228 231 234 240 247 252 253 253 256 256 246 218 201 211 221 222 215 205 206 201 197 197 192 193 194 190 190 189 194 196 195 201 201 194 186 176 176 176 170 169 169 171 173 170 172 170 168 169 161 156 153 149 147 138 134 130 137 140 129 132 136 140 140 131 125
164 162 154 161 175 172 183 201 212 222 218 198 198 220 226 236 240 227 231 236 231 235 241 244 247 253 253 246 257 258 242 222 215 222 227 228 223 217 213 204 205 207 197 195 195 192 190 187 189 192 196 204 204 198 187 171 170 173 169 169 170 172 178 179 175 174 181 178 167 165 158 156 162 155 141 132 131 134 133 130 127 132 138 134 124
150 152 149 150 160 159 170 190 210 224 225 219 217 231 236 239 242 242 243 236 230 234 239 243 245 249 248 235 248 263 248 230 227 231 232 232 228 225 221 208 208 208 201 201 200 197 192 183 185 190 192 201 205 201 188 170 168 172 172 171 171 177 181 181 185 191 193 184 173 173 174 174 178 168 151 146 142 137 140 138 137 141 138 131 129
142 144 146 147 149 153 164 178 195 213 226 235 237 246 252 249 246 246 240 230 229 233 238 245 245 247 247 238 246 261 258 237 229 232 233 233 229 225 219 210 210 207 205 207 206 203 191 178 182 185 184 193 200 200 193 179 172 172 172 170 168 175 180 183 194 196 196 191 185 189 191 189 186 177 165 163 156 147 151 149 154 160 143 129 132
134 138 144 147 148 152 158 172 192 218 240 231 224 239 249 241 233 238 238 231 227 229 237 245 242 242 243 240 244 252 251 241 238 237 234 231 225 220 212 210 212 206 205 208 206 202 190 177 177 182 186 188 190 194 187 174 171 173 170 163 162 173 181 189 200 200 200 200 196 200 199 200 197 185 182 179 172 166 163 161 166 169 134 118 134
127 133 138 145 150 154 156 158 182 249 256 234 219 232 240 233 225 230 233 232 230 228 231 236 237 237 237 234 237 244 246 244 244 244 240 231 224 221 217 218 216 207 202 202 201 194 185 178 174 180 192 192 188 188 179 169 175 183 175 164 163 174 182 190 204 206 205 206 205 208 204 209 205 190 194 192 178 178 180 182 172 154 119 88 125
121 123 124 137 148 154 159 157 195 244 228 219 226 242 242 241 248 239 231 234 237 234 229 230 239 243 243 242 242 244 244 242 242 244 242 236 229 225 223 223 218 210 204 201 202 194 185 182 175 173 184 194 194 189 184 180 186 187 182 184 171 167 184 197 207 208 208 209 210 217 215 214 212 197 199 200 191 192 184 185 179 161 169 115 78
123 123 119 126 135 144 154 156 247 244 219 213 210 224 231 239 261 253 236 240 243 237 228 227 238 245 248 252 253 249 245 241 240 241 239 234 232 229 227 223 214 209 204 201 203 199 193 188 181 172 172 188 198 195 195 198 205 199 189 195 169 169 205 198 197 198 198 207 214 222 219 211 210 202 199 198 197 199 180 184 197 184 176 145 120
119 121 119 119 122 132 151 163 197 246 236 226 212 206 212 218 234 237 232 240 241 233 225 222 230 239 242 245 250 250 245 239 236 237 237 230 226 227 228 220 208 205 203 200 202 199 195 191 186 184 182 190 199 198 201 208 219 213 199 206 170 191 222 172 177 190 190 201 209 215 213 201 200 198 199 197 193 195 176 172 186 178 175 179 183
106 108 110 109 111 113 124 143 174 237 235 232 232 221 215 212 215 218 216 222 227 224 222 223 227 232 234 237 243 244 239 234 232 231 230 228 223 222 222 215 205 204 202 200 200 198 197 194 190 193 194 197 200 199 200 203 212 210 211 229 189 197 217 164 166 186 182 193 196 197 201 194 193 192 191 189 181 177 157 140 137 148 169 176 169
97 99 102 103 107 109 117 145 193 241 240 240 234 219 215 215 220 227 225 225 227 224 224 228 231 232 234 240 245 245 236 230 231 228 226 224 223 220 216 212 205 204 203 200 198 196 198 196 190 196 200 198 200 201 196 194 199 206 215 228 208 200 222 191 189 182 167 183 188 191 196 188 189 190 189 183 168 159 150 151 150 154 172 168 168
93 95 94 93 93 99 121 164 192 229 245 244 228 217 220 219 222 232 235 237 238 233 229 230 231 231 235 243 248 249 242 232 228 228 226 225 228 222 211 209 204 202 205 204 199 196 198 195 188 201 208 200 197 199 195 192 196 203 209 219 218 206 207 214 251 243 197 177 174 186 190 180 177 177 181 172 157 157 159 161 155 153 165 167 173
89 89 87 86 86 98 117 142 197 218 227 238 231 224 225 222 222 228 235 243 246 243 240 237 239 237 237 243 245 248 247 239 232 231 229 228 231 227 213 210 206 201 204 204 199 198 202 197 189 200 205 196 193 196 196 195 199 206 203 205 215 209 198 201 221 236 229 189 170 177 172 167 165 167 168 151 149 160 161 162 158 148 161 175 177
83 85 87 84 84 95 112 138 238 240 230 237 240 233 230 229 229 231 236 243 247 247 244 240 243 244 244 246 244 246 247 243 237 235 235 231 231 229 220 215 210 204 200 197 195 197 201 199 195 197 197 193 193 196 198 198 202 208 197 194 207 209 202 197 195 208 221 215 185 163 159 165 167 165 164 154 158 161 147 155 160 135 131 130 151
74 76 80 80 78 82 75 51 280 279 261 246 242 240 238 237 239 240 241 244 247 249 247 242 239 239 244 247 247 247 247 247 243 237 237 232 230 231 226 220 217 210 200 195 194 195 198 198 200 201 199 199 199 197 199 199 199 202 198 197 200 208 219 211 195 194 193 207 197 156 158 169 166 156 157 155 155 151 143 155 151 130 132 138 151
Height
789 791 793 794 797 797 799 800 801 802 803 804 805 807 808 809 810 812 813 813 814 815 815 816 817 819 820 821 822 822 823 823 824 824 825 825 825 826 825 824 824 824 825 825 825 825 826 827 827 827 827 827 826 826 826 827 826 826 826 826 826 827 827 827 827 827 828 828 828 828 828 828 828 828 828 827 827 827 826 826 826 826 826 825 824
789 792 794 795 797 798 800 800 802 803 804 805 806 808 809 811 811 813 813 814 815 815 816 818 819 820 821 822 823 823 824 824 825 825 826 826 826 827 826 825 825 826 826 826 827 827 828 828 828 828 828 828 827 827 827 828 828 827 827 827 827 828 829 829 829 829 829 830 830 830 830 830 830 830 830 830 829 828 828 828 828 827 827 827 826
790 793 795 796 798 799 801 801 803 803 805 806 807 809 810 812 812 813 814 815 815 816 818 819 820 821 822 823 824 824 825 825 826 827 827 827 827 828 827 827 827 827 827 828 828 828 829 829 830 829 830 829 829 828 828 829 829 829 828 828 829 829 830 830 830 830 831 831 831 831 831 831 831 831 832 831 831 830 829 829 829 829 829 829 828
791 794 796 797 799 800 801 802 804 804 806 807 808 809 811 812 813 814 814 815 816 817 818 819 821 822 823 824 825 825 825 826 827 828 828 828 828 828 828 828 828 829 829 829 830 830 830 831 831 831 831 831 830 830 829 830 830 830 830 830 830 831 831 832 832 832 832 833 833 833 833 833 833 834 834 833 833 832 832 831 831 831 831 830 829
792 795 796 799 800 801 802 803 805 806 807 808 809 810 811 812 813 814 815 816 816 817 819 820 821 822 824 824 825 826 827 828 828 829 829 829 829 829 830 830 830 830 831 831 832 832 832 832 833 833 832 832 832 831 831 831 831 831 831 831 831 832 832 833 833 833 834 834 834 834 835 835 835 835 835 835 835 834 834 834 833 833 833 832 831
793 795 798 800 802 803 804 805 806 807 807 808 809 810 812 813 814 815 816 816 817 818 819 821 822 823 824 826 827 827 827 828 829 830 830 830 830 831 831 831 831 832 832 833 833 834 834 834 834 834 834 833 833 832 832 832 833 833 832 832 832 833 833 834 834 835 835 835 835 835 836 836 836 836 836 836 836 836 835 835 835 835 834 834 833
794 796 799 801 803 804 805 806 806 807 808 809 810 811 812 813 814 815 816 817 818 819 820 821 822 824 825 826 827 827 828 829 830 830 831 831 831 831 832 832 832 833 834 834 835 835 835 836 836 835 835 835 834 834 833 833 833 834 834 833 833 834 834 835 835 836 835 836 836 836 836 837 837 838 838 838 838 838 837 837 837 837 836 836 835
795 798 800 802 804 805 806 807 807 808 808 809 810 811 812 813 814 815 816 817 818 819 820 821 823 824 825 827 827 828 829 829 830 831 831 831 831 832 833 833 833 834 835 836 836 836 837 837 837 837 836 836 835 835 834 834 834 834 834 834 834 834 835 836 836 836 836 837 837 837 837 838 838 839 839 839 839 839 839 838 838 838 838 837 837
796 798 800 803 804 805 806 807 808 809 809 810 811 812 812 814 815 816 817 817 818 819 821 822 823 825 826 827 828 829 829 830 830 832 832 832 832 832 833 834 835 835 836 837 837 838 838 838 838 838 837 837 836 836 835 835 835 835 835 835 835 835 836 837 836 837 838 838 838 838 838 839 839 840 840 841 841 841 840 840 839 840 839 839 838
797 799 801 803 805 806 807 808 809 809 810 810 811 812 813 814 815 816 817 817 818 820 821 822 824 825 826 828 828 829 830 831 831 832 832 833 833 833 834 835 836 836 837 838 838 839 839 839 839 839 838 838 837 837 836 836 836 836 836 836 836 836 837 837 837 838 839 839 840 840 840 840 840 841 842 842 842 842 841 841 841 841 841 840 839
798 800 802 803 805 806 807 809 809 810 810 811 812 812 813 814 815 816 817 818 819 820 822 823 825 826 827 828 829 831 831 832 832 832 833 834 834 834 835 836 837 838 838 839 839 840 840 840 840 840 840 839 838 838 837 837 837 837 837 837 837 837 837 837 839 840 841 841 841 841 842 842 842 843 843 843 843 843 843 843 843 843 842 842 841
798 800 802 804 806 807 808 809 810 811 811 812 812 813 814 815 816 816 817 818 820 821 822 824 825 827 828 829 831 832 833 833 833 833 834 834 835 835 835 837 838 839 839 840 840 840 841 841 842 841 841 840 840 839 839 838 838 838 838 838 838 838 838 838 841 842 842 842 843 843 844 844 844 844 844 845 844 844 845 845 844 844 844 844 843
799 801 802 804 806 808 808 809 810 811 812 812 813 814 815 815 817 817 818 819 821 822 823 825 826 827 829 830 832 833 833 834 834 834 834 835 836 837 837 838 839 840 840 841 841 841 842 842 842 842 842 841 841 840 840 840 839 839 839 839 839 839 839 840 842 843 843 844 844 845 845 845 845 845 845 846 845 846 846 846 846 846 846 845 845
799 801 802 805 807 808 809 810 811 811 812 813 814 815 815 816 817 818 819 820 821 823 824 826 827 828 829 830 832 833 833 834 835 834 834 835 836 837 838 838 839 841 841 842 843 843 843 843 843 843 843 843 842 842 841 841 840 840 841 841 841 840 840 842 843 844 844 845 845 846 846 847 847 846 847 847 846 847 847 847 847 847 847 846 846
800 801 803 805 807 809 810 810 811 812 813 813 815 815 816 817 818 819 820 821 822 824 825 826 827 829 830 830 831 832 833 834 835 835 835 835 836 838 838 839 839 841 842 843 844 844 844 844 844 844 844 844 843 843 842 842 841 842 842 842 842 841 842 844 844 844 845 845 846 847 847 848 848 848 848 847 847 847 848 848 848 848 848 848 847
800 802 803 805 807 809 810 811 812 812 813 814 815 816 817 817 819 819 820 822 823 824 826 827 828 829 830 830 831 832 833 834 835 835 835 835 836 838 839 839 839 840 842 843 845 845 845 845 845 845 845 845 844 844 843 843 843 843 843 844 844 842 843 845 845 845 846 846 847 848 849 849 849 849 849 849 849 849 849 849 849 848 848 849 849
801 802 804 806 808 810 811 812 813 813 814 815 816 817 818 818 819 820 821 822 823 825 826 828 829 829 830 831 832 832 833 834 835 836 836 836 837 838 840 841 840 840 841 843 845 846 846 846 846 846 846 846 846 845 844 844 844 844 844 845 845 844 844 845 846 846 847 847 848 849 850 850 851 851 851 851 851 850 850 850 850 849 849 849 849
802 803 805 807 809 811 812 812 814 815 816 816 817 818 818 819 820 820 822 823 824 826 826 828 829 829 830 831 832 833 834 834 835 836 837 837 837 839 840 842 842 842 842 843 845 846 847 847 847 847 847 847 847 846 846 846 845 845 845 846 847 846 845 847 848 847 848 849 849 850 851 852 852 852 852 852 852 852 851 851 851 851 850 850 850
802 805 806 808 810 811 812 812 813 814 816 817 818 818 819 820 821 822 823 824 825 826 827 828 829 830 830 831 832 833 835 835 836 837 838 839 839 840 841 842 842 843 843 843 845 847 848 848 848 848 848 848 848 847 847 847 846 846 846 847 848 847 847 848 849 849 849 850 850 851 852 852 853 853 853 853 853 853 853 852 852 852 852 852 851
802 805 807 809 810 811 811 812 812 814 815 816 818 819 820 821 822 823 823 825 826 827 827 828 829 830 831 832 833 834 836 836 837 838 839 839 840 841 842 842 843 843 844 844 845 847 848 848 848 849 849 849 849 849 848 848 847 847 848 848 848 848 850 850 850 850 850 851 852 852 853 853 854 854 854 854 854 854 854 854 853 853 853 852 852
802 804 807 808 808 810 810 811 811 813 814 816 818 820 821 822 823 824 825 826 826 827 828 829 830 831 832 833 834 835 836 837 838 839 839 840 841 841 842 843 843 844 845 845 845 847 848 849 849 849 849 849 849 849 849 849 848 848 849 849 849 850 852 852 851 852 852 852 853 853 853 854 854 855 855 855 855 855 855 855 854 854 854 853 853
802 804 806 806 807 809 809 810 811 812 814 815 817 819 821 822 824 825 826 827 827 828 829 830 831 832 833 834 835 836 836 837 838 839 840 841 841 841 842 843 843 844 845 846 846 847 848 849 849 849 850 850 850 851 850 850 849 849 849 849 850 852 853 853 853 853 853 853 853 853 854 854 855 855 855 856 856 856 855 855 855 855 855 854 854
801 803 805 805 806 808 808 810 810 812 814 815 817 819 821 822 824 825 826 827 827 828 829 830 831 832 833 834 834 835 836 836 837 838 839 841 841 842 842 843 843 843 845 846 846 847 848 849 849 850 850 851 851 852 852 851 850 850 850 851 852 853 853 854 854 854 854 854 854 854 855 855 856 856 856 856 856 857 857 857 856 856 856 855 855
801 802 804 805 806 807 808 809 810 812 814 815 817 819 820 822 823 824 825 826 826 827 828 829 830 831 831 833 834 834 835 835 836 837 838 840 840 841 842 843 844 844 845 846 847 847 848 849 849 850 851 851 852 853 853 853 852 851 852 852 853 854 854 855 855 855 856 856 855 855 856 856 857 857 857 857 857 857 858 857 857 857 856 856 856
800 802 804 805 806 807 808 809 810 812 814 815 817 819 820 822 823 824 825 826 826 827 827 828 829 830 830 832 833 833 835 835 836 836 838 839 840 841 842 843 844 844 845 846 848 848 849 850 850 850 851 852 853 853 853 853 853 853 853 853 854 854 855 855 855 856 856 857 857 856 857 857 858 858 858 858 858 858 858 858 858 858 857 857 856
801 802 804 805 807 808 808 809 811 812 814 816 818 820 821 822 823 824 825 826 826 826 827 828 828 828 829 830 832 833 834 835 836 836 838 838 839 840 841 842 843 844 844 845 847 848 849 850 850 851 852 852 852 853 853 854 853 853 853 853 854 854 855 855 856 856 857 858 857 857 858 858 858 859 859 859 858 859 859 859 859 858 858 858 857
801 803 804 806 807 808 810 810 812 813 815 817 819 820 821 822 823 824 825 826 826 826 827 827 827 827 828 829 830 832 833 834 835 836 837 838 838 839 840 841 842 843 844 844 846 847 848 849 850 851 851 852 852 853 854 854 854 853 853 853 854 855 855 856 856 856 857 858 858 858 858 858 859 859 859 859 859 859 860 860 860 859 859 859 858
801 803 805 806 808 809 810 811 813 814 816 818 819 820 821 822 823 824 825 826 826 827 827 827 827 826 827 828 829 830 831 833 834 835 836 837 837 838 839 840 841 842 843 843 844 846 847 848 849 850 851 851 852 853 854 854 854 854 854 854 854 855 856 856 856 857 857 858 859 858 858 859 859 860 860 860 860 860 860 861 860 860 860 859 859
802 804 805 806 808 809 810 812 813 815 816 818 819 820 821 822 823 824 825 826 826 827 827 827 827 827 826 827 827 828 830 831 833 834 835 836 836 837 838 839 841 842 842 842 843 845 846 847 848 849 850 851 852 853 853 854 854 854 854 854 855 855 856 856 856 857 858 859 859 859 859 859 859 860 860 860 860 860 861 861 861 861 860 860 860
803 804 806 807 808 809 811 812 813 815 816 817 819 820 821 821 822 823 825 825 825 825 826 826 826 827 826 826 826 827 828 830 831 833 834 835 835 836 837 838 840 841 841 841 842 844 845 846 847 849 850 851 851 852 853 854 854 854 854 854 855 855 856 857 857 857 858 859 859 859 859 859 860 860 860 860 861 861 861 861 862 861 861 861 860
803 805 806 807 808 809 811 812 814 815 816 818 819 819 820 821 822 823 824 823 823 823 824 825 825 825 825 825 825 825 826 828 830 832 833 834 835 836 836 838 839 839 840 841 842 843 844 845 846 848 849 850 851 852 853 854 854 854 854 854 855 855 856 857 857 858 858 859 859 859 860 860 860 860 860 860 861 861 862 862 862 862 861 861 861
804 805 807 807 808 809 811 813 814 815 816 818 818 818 819 820 822 823 823 822 822 823 823 825 825 825 824 824 824 824 825 827 829 831 832 834 835 835 836 837 838 838 839 840 841 842 844 845 846 847 849 850 850 851 852 853 854 854 854 855 855 855 856 857 857 858 858 859 859 860 860 860 860 860 860 860 861 862 862 862 862 862 861 861 861
804 806 807 807 808 809 811 812 814 815 816 817 817 818 818 820 822 823 823 823 824 824 825 826 825 825 824 823 823 824 825 827 829 831 833 834 834 834 835 836 838 838 839 839 840 842 843 844 845 847 848 849 850 851 852 853 853 854 854 855 855 856 856 857 858 858 858 859 859 860 860 860 860 860 860 860 861 861 862 862 862 862 862 862 862
804 806 807 807 809 809 810 812 813 814 815 816 817 818 819 820 822 823 823 824 825 826 826 826 826 825 825 824 822 822 825 827 829 831 833 833 833 834 835 836 837 837 838 839 840 841 842 843 845 846 848 848 849 850 851 852 853 854 854 855 855 856 856 857 858 858 858 859 859 860 860 860 860 860 860 860 860 861 861 861 862 862 862 862 862
805 806 807 808 809 810 811 812 813 814 815 816 817 818 819 820 821 823 824 824 825 825 825 825 825 825 825 824 823 823 826 829 830 831 832 833 833 833 834 835 836 836 837 838 839 840 841 842 843 845 847 848 848 849 850 851 852 853 854 854 855 855 856 857 857 858 859 859 859 859 860 860 860 860 860 860 861 860 861 861 861 862 862 862 862
805 807 808 809 810 811 812 812 813 814 814 815 816 818 819 819 821 822 823 824 823 823 823 824 824 825 825 825 824 824 826 828 829 830 832 832 832 832 833 834 835 836 837 837 838 839 840 841 842 843 845 846 847 848 849 850 852 853 854 854 854 855 856 857 857 858 859 859 859 859 859 860 860 860 860 861 861 860 860 861 861 861 862 862 863
806 807 808 809 810 811 812 812 813 813 814 816 817 818 818 819 820 822 823 823 823 823 823 823 824 825 825 825 824 824 825 827 828 829 831 831 831 831 831 833 834 835 836 837 837 838 839 840 841 842 844 845 846 847 848 849 851 852 853 853 854 855 856 857 858 858 859 859 859 859 859 859 860 860 860 861 861 860 860 860 861 861 862 862 863
806 807 808 809 810 811 812 813 813 814 815 816 817 818 819 820 821 822 823 823 824 823 823 823 824 825 825 825 824 824 825 826 827 828 829 830 830 831 831 832 833 834 836 836 836 837 838 839 839 840 842 843 844 846 847 848 850 851 852 853 853 855 856 856 857 858 858 858 859 859 859 859 860 860 860 860 861 861 861 861 861 862 862 862 863
805 806 808 809 810 811 812 813 813 814 815 817 818 818 819 820 821 822 823 823 823 823 823 823 824 824 824 825 824 824 824 825 826 826 827 828 829 830 831 831 832 834 836 836 836 836 836 837 838 839 841 842 843 845 846 847 848 850 850 851 852 854 855 856 857 857 858 858 858 859 859 859 860 860 860 860 860 861 862 862 862 862 862 863 863
805 806 807 809 810 811 811 813 814 814 815 817 817 818 819 820 821 822 821 821 821 821 822 822 823 822 822 824 823 823 823 823 824 825 826 827 828 829 830 831 831 832 834 836 836 836 835 836 837 838 839 841 842 844 845 846 847 848 849 850 851 852 854 855 856 857 857 857 858 858 859 859 859 859 860 860 860 861 861 862 862 862 862 863 864
804 806 807 808 809 810 811 812 813 814 815 816 817 818 818 819 820 820 819 819 820 821 821 821 821 820 821 822 822 822 822 822 823 824 824 826 827 828 829 830 829 829 832 835 836 835 834 835 836 837 838 839 840 842 843 845 845 846 847 848 850 851 853 854 855 856 856 857 857 858 858 858 859 859 859 859 860 860 861 861 862 862 862 863 864
804 806 806 808 809 810 811 812 813 814 815 816 817 817 817 818 818 818 817 817 818 819 820 820 819 819 820 820 820 820 821 821 822 822 823 824 825 826 827 828 828 828 830 833 834 834 834 834 834 835 836 837 838 840 841 843 843 843 845 848 850 851 852 853 854 854 855 855 856 857 857 858 858 858 859 859 859 860 860 861 861 862 862 862 863
804 805 806 808 809 810 811 812 813 813 814 815 816 816 816 817 817 816 816 816 816 817 818 818 818 818 819 819 819 819 819 820 821 821 822 822 822 823 824 825 826 826 828 830 831 833 833 833 833 833 834 836 838 839 840 841 842 842 845 847 848 850 851 852 852 853 853 854 855 855 856 857 857 858 858 859 859 860 860 860 860 861 862 862 863
803 805 806 807 808 810 810 811 812 813 814 815 815 815 815 815 815 814 814 815 815 816 817 817 817 817 817 817 817 817 818 819 819 820 820 820 821 821 822 823 824 825 826 827 829 831 832 832 832 832 833 835 837 839 839 840 840 840 841 842 844 848 850 849 850 852 852 853 854 854 854 855 856 857 858 858 859 859 860 860 860 861 862 862 863
803 804 806 807 808 809 810 811 811 812 813 814 814 815 815 815 815 814 814 814 815 815 816 816 816 816 816 816 816 816 817 818 818 819 818 819 820 820 820 821 822 824 824 825 828 829 830 831 830 830 831 833 835 836 837 839 838 837 838 840 844 846 845 844 847 850 851 852 853 853 853 855 856 857 857 857 858 859 859 860 860 860 861 862 862
803 804 806 807 808 809 810 810 811 811 812 813 814 814 815 815 815 814 813 813 813 813 814 814 815 815 815 815 816 816 816 817 817 818 818 818 819 819 819 820 821 822 823 824 826 828 828 828 829 829 830 832 833 833 834 837 837 836 838 840 842 842 841 842 845 846 848 850 851 853 853 854 855 856 857 857 858 859 859 860 860 860 861 861 862
803 805 806 807 808 809 810 810 810 811 811 812 813 813 814 814 814 813 811 811 811 812 812 813 814 815 815 815 815 816 816 816 816 817 817 817 818 817 817 818 819 820 821 822 824 826 825 825 827 828 829 830 831 831 832 835 836 836 837 838 839 839 839 839 839 842 847 849 850 852 853 854 855 856 857 857 857 858 859 860 860 860 860 861 861
803 805 806 807 808 809 809 809 810 810 810 811 811 812 812 812 812 812 811 810 810 811 812 813 814 814 814 815 815 815 815 816 816 816 816 816 816 816 816 817 817 818 819 820 821 823 824 824 825 828 829 829 829 829 830 832 833 835 836 837 838 838 838 838 837 838 841 845 849 851 852 853 855 856 856 857 857 858 858 859 859 860 860 860 860
804 805 806 807 808 808 808 809 809 809 809 809 810 810 810 810 810 810 810 810 809 810 811 811 812 813 813 814 815 815 815 815 815 815 815 815 815 815 815 815 815 816 818 819 820 822 822 823 824 826 828 828 827 827 828 829 831 832 834 836 837 837 838 838 838 838 837 840 847 850 850 852 854 855 856 856 857 857 858 858 859 859 860 860 860
803 805 805 806 807 807 807 808 808 808 808 808 809 808 809 809 809 809 809 809 809 809 810 810 810 811 812 813 814 815 815 814 814 814 814 813 814 814 814 813 813 815 817 818 820 821 821 822 823 824 825 825 825 825 826 827 829 831 833 836 837 837 837 837 837 838 837 838 842 845 848 850 851 854 855 856 857 857 858 858 858 859 860 860 861
803 804 805 805 806 806 807 807 807 807 807 807 807 807 808 808 807 808 808 808 808 808 808 808 808 809 810 811 813 814 814 813 813 813 813 813 812 812 812 812 812 813 815 817 819 820 820 821 822 823 823 823 823 823 825 826 828 829 831 834 835 836 836 835 835 836 837 837 838 841 846 848 849 852 854 855 856 857 858 858 859 860 860 861 861